| time (UTC) | temp C | wind direction | speed KPH | gust KPH | rain 1hr cm | rain 24hr cm | rain mn cm | humidity % | barometer mb |
| 20260505122004 | 12 | 114 | 0.0 | 1.6 | 0.00 | 0.00 | 0.00 | 89 | 1014.5 |
| 20260505121506 | 12 | 204 | 0.0 | 1.6 | 0.00 | 0.00 | 0.00 | 89 | 1014.5 |
| 20260505121005 | 11 | 130 | 0.0 | 1.6 | 0.00 | 0.00 | 0.00 | 89 | 1014.5 |
| 20260505120508 | 11 | 64 | 0.0 | 1.6 | 0.00 | 0.00 | 0.00 | 89 | 1014.5 |
| 20260505115505 | 10 | 185 | 0.0 | 0.0 | 0.00 | 0.00 | 0.00 | 88 | 1014.5 |
| 20260505115007 | 10 | 185 | 0.0 | 0.0 | 0.00 | 0.00 | 0.00 | 88 | 1014.4 |
| 20260505114008 | 10 | 241 | 0.0 | 1.6 | 0.00 | 0.00 | 0.00 | 87 | 1014.5 |
| 20260505113508 | 10 | 265 | 0.0 | 1.6 | 0.00 | 0.00 | 0.00 | 87 | 1014.3 |
| 20260505113017 | 9 | 236 | 0.0 | 1.6 | 0.00 | 0.00 | 0.00 | 86 | 1014.3 |
| 20260505112510 | 9 | 331 | 0.0 | 1.6 | 0.00 | 0.00 | 0.00 | 86 | 1014.1 |
| 20260505112011 | 9 | 331 | 0.0 | 0.0 | 0.00 | 0.00 | 0.00 | 85 | 1014.2 |
| 20260505111505 | 9 | 331 | 0.0 | 0.0 | 0.00 | 0.00 | 0.00 | 85 | 1014.0 |
| 20260505111004 | 9 | 331 | 0.0 | 3.2 | 0.00 | 0.00 | 0.00 | 85 | 1013.8 |
| 20260505110504 | 9 | 331 | 0.0 | 3.2 | 0.00 | 0.00 | 0.00 | 84 | 1013.7 |
| 20260505102011 | 10 | 45 | 0.0 | 0.0 | 0.00 | 0.00 | 0.00 | 80 | 1013.7 |
| 20260505101521 | 10 | 197 | 0.0 | 0.0 | 0.00 | 0.00 | 0.00 | 80 | 1013.7 |
| 20260505101009 | 11 | 197 | 0.0 | 0.0 | 0.00 | 0.00 | 0.00 | 79 | 1013.6 |
| 20260505100507 | 11 | 197 | 0.0 | 0.0 | 0.00 | 0.00 | 0.00 | 79 | 1013.6 |
| 20260505100005 | 11 | 197 | 0.0 | 0.0 | 0.00 | 0.00 | 0.00 | 78 | 1013.7 |
| 20260505095507 | 11 | 197 | 0.0 | 0.0 | 0.00 | 0.00 | 0.00 | 78 | 1013.7 |
| 20260505095007 | 11 | 197 | 0.0 | 0.0 | 0.00 | 0.00 | 0.00 | 77 | 1013.8 |
| 20260505094510 | 11 | 197 | 0.0 | 0.0 | 0.00 | 0.00 | 0.00 | 76 | 1013.8 |
| 20260505094004 | 11 | 197 | 0.0 | 0.0 | 0.00 | 0.00 | 0.00 | 76 | 1013.8 |
| 20260505093505 | 12 | 197 | 0.0 | 0.0 | 0.00 | 0.00 | 0.00 | 76 | 1013.8 |
| 20260505093014 | 12 | 196 | 0.0 | 0.0 | 0.00 | 0.00 | 0.00 | 76 | 1013.8 |
| 20260505092508 | 12 | 197 | 0.0 | 0.0 | 0.00 | 0.00 | 0.00 | 76 | 1013.8 |
| 20260505092009 | 12 | 197 | 0.0 | 1.6 | 0.00 | 0.00 | 0.00 | 76 | 1013.8 |
| 20260505091518 | 12 | 197 | 0.0 | 1.6 | 0.00 | 0.00 | 0.00 | 76 | 1013.8 |
| 20260505091007 | 12 | 197 | 0.0 | 0.0 | 0.00 | 0.00 | 0.00 | 76 | 1013.7 |
| 20260505090507 | 12 | 197 | 0.0 | 0.0 | 0.00 | 0.00 | 0.00 | 75 | 1013.7 |
| 20260505090022 | 12 | 197 | 0.0 | 0.0 | 0.00 | 0.00 | 0.00 | 75 | 1013.6 |
| 20260505085507 | 13 | 197 | 0.0 | 1.6 | 0.00 | 0.00 | 0.00 | 75 | 1013.5 |
| 20260505085010 | 13 | 196 | 0.0 | 1.6 | 0.00 | 0.00 | 0.00 | 74 | 1013.4 |
| 20260505084527 | 13 | 196 | 0.0 | 1.6 | 0.00 | 0.00 | 0.00 | 74 | 1013.4 |
| 20260505084004 | 13 | 196 | 0.0 | 1.6 | 0.00 | 0.00 | 0.00 | 73 | 1013.4 |
| 20260505083504 | 13 | 196 | 0.0 | 1.6 | 0.00 | 0.00 | 0.00 | 73 | 1013.4 |
| 20260505083011 | 13 | 196 | 0.0 | 1.6 | 0.00 | 0.00 | 0.00 | 73 | 1013.4 |
| 20260505082504 | 13 | 196 | 0.0 | 0.0 | 0.00 | 0.00 | 0.00 | 72 | 1013.3 |
| 20260505082010 | 13 | 196 | 0.0 | 1.6 | 0.00 | 0.00 | 0.00 | 72 | 1013.3 |
| 20260505081521 | 13 | 197 | 0.0 | 1.6 | 0.00 | 0.00 | 0.00 | 71 | 1013.2 |
| 20260505081009 | 14 | 197 | 0.0 | 0.0 | 0.00 | 0.00 | 0.00 | 70 | 1013.2 |
| 20260505080510 | 14 | 197 | 0.0 | 0.0 | 0.00 | 0.00 | 0.00 | 70 | 1013.2 |
| 20260505080022 | 14 | 196 | 0.0 | 1.6 | 0.00 | 0.00 | 0.00 | 70 | 1013.2 |
| 20260505075510 | 14 | 196 | 0.0 | 3.2 | 0.00 | 0.00 | 0.00 | 70 | 1013.1 |
| 20260505075007 | 15 | 196 | 0.0 | 3.2 | 0.00 | 0.00 | 0.00 | 70 | 1013.1 |
| 20260505074525 | 15 | 263 | 0.0 | 3.2 | 0.00 | 0.00 | 0.00 | 68 | 1013.1 |
| 20260505074009 | 15 | 237 | 0.0 | 3.2 | 0.00 | 0.00 | 0.00 | 68 | 1013.1 |
| 20260505073514 | 15 | 233 | 0.0 | 4.8 | 0.00 | 0.00 | 0.00 | 68 | 1013.2 |
| 20260505073026 | 15 | 114 | 0.0 | 6.4 | 0.00 | 0.00 | 0.00 | 68 | 1013.1 |
| 20260505072505 | 15 | 219 | 1.6 | 6.4 | 0.00 | 0.00 | 0.00 | 67 | 1013.2 |
| 20260505072008 | 14 | 222 | 1.6 | 4.8 | 0.00 | 0.00 | 0.00 | 68 | 1013.2 |
| 20260505071514 | 14 | 298 | 0.0 | 8.0 | 0.00 | 0.00 | 0.00 | 68 | 1013.3 |
| 20260505071005 | 14 | 279 | 0.0 | 8.0 | 0.00 | 0.00 | 0.00 | 69 | 1013.3 |
| 20260505070508 | 14 | 241 | 1.6 | 4.8 | 0.00 | 0.00 | 0.00 | 69 | 1013.3 |
| 20260505070019 | 15 | 258 | 0.0 | 1.6 | 0.00 | 0.00 | 0.00 | 68 | 1013.2 |
| 20260505065503 | 15 | 308 | 0.0 | 3.2 | 0.00 | 0.00 | 0.00 | 68 | 1013.2 |
| 20260505065003 | 15 | 308 | 0.0 | 3.2 | 0.00 | 0.00 | 0.00 | 68 | 1013.3 |
| 20260505064503 | 15 | 273 | 0.0 | 4.8 | 0.00 | 0.00 | 0.00 | 68 | 1013.3 |
| 20260505064005 | 15 | 230 | 0.0 | 4.8 | 0.00 | 0.00 | 0.00 | 67 | 1013.3 |
| 20260505063503 | 15 | 234 | 0.0 | 4.8 | 0.00 | 0.00 | 0.00 | 67 | 1013.3 |
| 20260505063008 | 15 | 24 | 0.0 | 6.4 | 0.00 | 0.00 | 0.00 | 68 | 1013.3 |
| 20260505062503 | 15 | 197 | 1.6 | 8.0 | 0.00 | 0.00 | 0.00 | 68 | 1013.3 |
| 20260505062003 | 15 | 230 | 1.6 | 8.0 | 0.00 | 0.00 | 0.00 | 68 | 1013.4 |
| 20260505061511 | 15 | 231 | 0.0 | 8.0 | 0.00 | 0.00 | 0.00 | 69 | 1013.3 |
| 20260505061004 | 15 | 201 | 1.6 | 8.0 | 0.00 | 0.00 | 0.00 | 69 | 1013.3 |
| 20260505060511 | 15 | 273 | 0.0 | 4.8 | 0.00 | 0.00 | 0.00 | 70 | 1013.3 |
| 20260505060016 | 15 | 260 | 0.0 | 6.4 | 0.00 | 0.00 | 0.00 | 70 | 1013.2 |
| 20260505055512 | 15 | 196 | 0.0 | 8.0 | 0.00 | 0.00 | 0.00 | 71 | 1013.2 |
| 20260505055003 | 15 | 185 | 1.6 | 9.7 | 0.00 | 0.00 | 0.00 | 72 | 1013.3 |
| 20260505054515 | 14 | 251 | 3.2 | 9.7 | 0.00 | 0.00 | 0.00 | 73 | 1013.3 |
| 20260505054002 | 13 | 186 | 1.6 | 6.4 | 0.00 | 0.00 | 0.00 | 74 | 1013.3 |
| 20260505053504 | 13 | 221 | 0.0 | 4.8 | 0.00 | 0.00 | 0.00 | 75 | 1013.3 |
| 20260505053004 | 13 | 249 | 0.0 | 4.8 | 0.00 | 0.00 | 0.00 | 76 | 1013.3 |
| 20260505052503 | 13 | 226 | 0.0 | 4.8 | 0.00 | 0.00 | 0.00 | 76 | 1013.3 |
| 20260505052003 | 13 | 227 | 0.0 | 4.8 | 0.00 | 0.00 | 0.00 | 77 | 1013.3 |
| 20260505051512 | 13 | 241 | 0.0 | 1.6 | 0.00 | 0.00 | 0.00 | 77 | 1013.1 |
| 20260505051004 | 13 | 241 | 0.0 | 4.8 | 0.00 | 0.00 | 0.00 | 77 | 1013.0 |
| 20260505050508 | 13 | 241 | 0.0 | 4.8 | 0.00 | 0.00 | 0.00 | 78 | 1013.0 |
| 20260505041507 | 13 | 214 | 0.0 | 0.0 | 0.00 | 0.00 | 0.00 | 76 | 1013.0 |
| 20260505041005 | 13 | 214 | 0.0 | 0.0 | 0.00 | 0.00 | 0.00 | 76 | 1013.0 |
| 20260505040507 | 13 | 214 | 0.0 | 0.0 | 0.00 | 0.00 | 0.00 | 76 | 1013.0 |
| 20260505040014 | 13 | 214 | 0.0 | 0.0 | 0.00 | 0.00 | 0.00 | 76 | 1013.0 |
| 20260505035504 | 13 | 214 | 0.0 | 0.0 | 0.00 | 0.00 | 0.00 | 76 | 1013.0 |
| 20260505035004 | 13 | 214 | 0.0 | 0.0 | 0.00 | 0.00 | 0.00 | 75 | 1013.1 |
| 20260505034526 | 13 | 214 | 0.0 | 0.0 | 0.00 | 0.00 | 0.00 | 75 | 1013.0 |
| 20260505034008 | 13 | 214 | 0.0 | 0.0 | 0.00 | 0.00 | 0.00 | 74 | 1013.1 |
| 20260505033506 | 14 | 214 | 0.0 | 0.0 | 0.00 | 0.00 | 0.00 | 73 | 1013.1 |
| 20260505033022 | 14 | 214 | 0.0 | 0.0 | 0.00 | 0.00 | 0.00 | 72 | 1013.0 |
| 20260505032507 | 15 | 214 | 0.0 | 0.0 | 0.00 | 0.00 | 0.00 | 72 | 1013.1 |
| 20260505032008 | 15 | 214 | 0.0 | 0.0 | 0.00 | 0.00 | 0.00 | 71 | 1013.2 |
| 20260505031506 | 15 | 214 | 0.0 | 0.0 | 0.00 | 0.00 | 0.00 | 70 | 1013.1 |
| 20260505031004 | 15 | 214 | 0.0 | 0.0 | 0.00 | 0.00 | 0.00 | 70 | 1013.1 |
| 20260505030504 | 15 | 214 | 0.0 | 0.0 | 0.00 | 0.00 | 0.00 | 69 | 1013.1 |
| 20260505030032 | 16 | 214 | 0.0 | 0.0 | 0.00 | 0.00 | 0.00 | 68 | 1013.1 |
| 20260505025508 | 16 | 214 | 0.0 | 0.0 | 0.00 | 0.00 | 0.00 | 67 | 1013.1 |
| 20260505025008 | 16 | 214 | 0.0 | 0.0 | 0.00 | 0.00 | 0.00 | 67 | 1013.2 |
| 20260505024517 | 16 | 214 | 0.0 | 1.6 | 0.00 | 0.00 | 0.00 | 66 | 1013.2 |
| 20260505024009 | 16 | 214 | 0.0 | 1.6 | 0.00 | 0.00 | 0.00 | 64 | 1013.3 |
| 20260505023507 | 17 | 214 | 0.0 | 1.6 | 0.00 | 0.00 | 0.00 | 64 | 1013.3 |
| 20260505023019 | 17 | 214 | 0.0 | 4.8 | 0.00 | 0.00 | 0.00 | 63 | 1013.2 |
| 20260505022506 | 17 | 214 | 0.0 | 6.4 | 0.00 | 0.00 | 0.00 | 63 | 1013.1 |
| 20260505022011 | 17 | 241 | 3.2 | 6.4 | 0.00 | 0.00 | 0.00 | 63 | 1013.2 |
| 20260505021523 | 17 | 225 | 1.6 | 6.4 | 0.00 | 0.00 | 0.00 | 64 | 1013.1 |
| 20260505021008 | 17 | 258 | 0.0 | 3.2 | 0.00 | 0.00 | 0.00 | 64 | 1013.1 |
| 20260505020507 | 17 | 258 | 0.0 | 3.2 | 0.00 | 0.00 | 0.00 | 64 | 1013.1 |
| 20260505020006 | 17 | 223 | 0.0 | 3.2 | 0.00 | 0.00 | 0.00 | 63 | 1013.1 |
| 20260505015504 | 17 | 232 | 0.0 | 1.6 | 0.00 | 0.00 | 0.00 | 63 | 1013.0 |
| 20260505015004 | 18 | 232 | 0.0 | 3.2 | 0.00 | 0.00 | 0.00 | 61 | 1012.9 |
| 20260505014518 | 18 | 232 | 0.0 | 3.2 | 0.00 | 0.00 | 0.00 | 61 | 1013.0 |
| 20260505014008 | 18 | 232 | 0.0 | 4.8 | 0.00 | 0.00 | 0.00 | 61 | 1013.0 |
| 20260505013507 | 18 | 232 | 0.0 | 6.4 | 0.00 | 0.00 | 0.00 | 60 | 1012.9 |
| 20260505013020 | 18 | 213 | 0.0 | 6.4 | 0.00 | 0.00 | 0.00 | 60 | 1012.9 |
| 20260505012507 | 18 | 264 | 1.6 | 4.8 | 0.00 | 0.00 | 0.00 | 60 | 1012.9 |
| 20260505012011 | 18 | 168 | 0.0 | 4.8 | 0.00 | 0.00 | 0.00 | 60 | 1012.8 |
| 20260505011520 | 19 | 258 | 0.0 | 3.2 | 0.00 | 0.00 | 0.00 | 60 | 1012.8 |
| 20260505011007 | 19 | 168 | 0.0 | 4.8 | 0.00 | 0.00 | 0.00 | 59 | 1012.7 |
| 20260505010507 | 19 | 256 | 0.0 | 8.0 | 0.00 | 0.00 | 0.00 | 58 | 1012.8 |
| 20260505010024 | 20 | 237 | 0.0 | 8.0 | 0.00 | 0.00 | 0.00 | 58 | 1012.7 |
| 20260505005512 | 20 | 266 | 0.0 | 4.8 | 0.00 | 0.00 | 0.00 | 57 | 1012.6 |
| 20260505005008 | 20 | 255 | 0.0 | 4.8 | 0.00 | 0.00 | 0.00 | 56 | 1012.5 |
| 20260505004524 | 20 | 211 | 0.0 | 9.7 | 0.00 | 0.00 | 0.00 | 55 | 1012.4 |
| 20260505004004 | 21 | 70 | 1.6 | 9.7 | 0.00 | 0.00 | 0.00 | 54 | 1012.3 |
| 20260505003504 | 21 | 208 | 1.6 | 9.7 | 0.00 | 0.00 | 0.00 | 54 | 1012.3 |
| 20260505003015 | 21 | 261 | 1.6 | 6.4 | 0.00 | 0.00 | 0.00 | 53 | 1012.3 |
| 20260505002505 | 21 | 229 | 1.6 | 6.4 | 0.00 | 0.00 | 0.00 | 52 | 1012.3 |
| 20260505002008 | 21 | 206 | 1.6 | 6.4 | 0.00 | 0.00 | 0.00 | 51 | 1012.3 |
| 20260505001518 | 21 | 93 | 1.6 | 8.0 | 0.00 | 0.00 | 0.00 | 51 | 1012.2 |
| 20260505001007 | 21 | 231 | 1.6 | 9.7 | 0.00 | 0.00 | 0.00 | 50 | 1012.2 |
| 20260505000511 | 22 | 304 | 1.6 | 9.7 | 0.00 | 0.00 | 0.00 | 49 | 1012.3 |
| 20260505000023 | 22 | 240 | 1.6 | 9.7 | 0.00 | 0.00 | 0.00 | 48 | 1012.3 |
| 20260504235507 | 22 | 224 | 1.6 | 8.0 | 0.00 | 0.00 | 0.00 | 47 | 1012.2 |
| 20260504235008 | 22 | 204 | 1.6 | 9.7 | 0.00 | 0.00 | 0.00 | 47 | 1012.2 |
| 20260504234524 | 22 | 187 | 4.8 | 9.7 | 0.00 | 0.00 | 0.00 | 46 | 1012.2 |
| 20260504234008 | 22 | 250 | 1.6 | 6.4 | 0.00 | 0.00 | 0.00 | 48 | 1012.1 |
| 20260504233509 | 22 | 197 | 0.0 | 8.0 | 0.00 | 0.00 | 0.00 | 50 | 1012.1 |
| 20260504233025 | 22 | 247 | 3.2 | 8.0 | 0.00 | 0.00 | 0.00 | 47 | 1012.1 |
| 20260504232507 | 22 | 241 | 0.0 | 8.0 | 0.00 | 0.00 | 0.00 | 50 | 1012.1 |
| 20260504232005 | 23 | 215 | 1.6 | 8.0 | 0.00 | 0.00 | 0.00 | 48 | 1012.1 |
| 20260504231516 | 23 | 174 | 1.6 | 8.0 | 0.00 | 0.00 | 0.00 | 49 | 1012.1 |
| 20260504231011 | 23 | 237 | 3.2 | 6.4 | 0.00 | 0.00 | 0.00 | 48 | 1012.0 |
| 20260504230507 | 23 | 239 | 1.6 | 8.0 | 0.00 | 0.00 | 0.00 | 48 | 1012.0 |
| 20260504230018 | 23 | 233 | 3.2 | 9.7 | 0.00 | 0.00 | 0.00 | 48 | 1012.0 |
| 20260504225508 | 23 | 109 | 1.6 | 9.7 | 0.00 | 0.00 | 0.00 | 47 | 1012.0 |
| 20260504225010 | 23 | 233 | 3.2 | 8.0 | 0.00 | 0.00 | 0.00 | 47 | 1012.0 |
| 20260504224529 | 23 | 298 | 3.2 | 8.0 | 0.00 | 0.00 | 0.00 | 47 | 1012.1 |
| 20260504224011 | 23 | 196 | 0.0 | 9.7 | 0.00 | 0.00 | 0.00 | 48 | 1012.1 |
| 20260504223508 | 23 | 168 | 0.0 | 9.7 | 0.00 | 0.00 | 0.00 | 46 | 1012.1 |
| 20260504223026 | 23 | 188 | 3.2 | 9.7 | 0.00 | 0.00 | 0.00 | 44 | 1012.2 |
| 20260504222511 | 23 | 229 | 1.6 | 11.3 | 0.00 | 0.00 | 0.00 | 44 | 1012.1 |
| 20260504222008 | 23 | 271 | 1.6 | 11.3 | 0.00 | 0.00 | 0.00 | 45 | 1012.1 |
| 20260504221513 | 23 | 178 | 1.6 | 11.3 | 0.00 | 0.00 | 0.00 | 45 | 1012.1 |
| 20260504221008 | 23 | 309 | 3.2 | 16.1 | 0.00 | 0.00 | 0.00 | 44 | 1012.0 |
| 20260504220508 | 23 | 212 | 4.8 | 16.1 | 0.00 | 0.00 | 0.00 | 42 | 1012.1 |
| 20260504220018 | 24 | 250 | 3.2 | 16.1 | 0.00 | 0.00 | 0.00 | 43 | 1012.2 |
| 20260504215504 | 24 | 257 | 4.8 | 16.1 | 0.00 | 0.00 | 0.00 | 42 | 1012.2 |
| 20260504215006 | 24 | 351 | 4.8 | 16.1 | 0.00 | 0.00 | 0.00 | 40 | 1012.3 |
| 20260504214503 | 24 | 204 | 4.8 | 14.5 | 0.00 | 0.00 | 0.00 | 43 | 1012.4 |
| 20260504214006 | 25 | 258 | 3.2 | 14.5 | 0.00 | 0.00 | 0.00 | 43 | 1012.4 |
| 20260504213504 | 25 | 233 | 4.8 | 12.9 | 0.00 | 0.00 | 0.00 | 41 | 1012.4 |
| 20260504213019 | 25 | 232 | 1.6 | 19.3 | 0.00 | 0.00 | 0.00 | 45 | 1012.4 |
| 20260504212503 | 25 | 258 | 3.2 | 19.3 | 0.00 | 0.00 | 0.00 | 40 | 1012.4 |
| 20260504212005 | 25 | 222 | 3.2 | 11.3 | 0.00 | 0.00 | 0.00 | 43 | 1012.4 |
| 20260504211513 | 25 | 231 | 6.4 | 12.9 | 0.00 | 0.00 | 0.00 | 43 | 1012.5 |
| 20260504211004 | 25 | 220 | 4.8 | 16.1 | 0.00 | 0.00 | 0.00 | 45 | 1012.5 |
| 20260504210507 | 25 | 249 | 6.4 | 16.1 | 0.00 | 0.00 | 0.00 | 45 | 1012.6 |
| 20260504210018 | 25 | 221 | 4.8 | 12.9 | 0.00 | 0.00 | 0.00 | 44 | 1012.6 |
| 20260504205507 | 24 | 251 | 4.8 | 12.9 | 0.00 | 0.00 | 0.00 | 45 | 1012.7 |
| 20260504205007 | 24 | 242 | 4.8 | 12.9 | 0.00 | 0.00 | 0.00 | 45 | 1012.7 |
| 20260504204518 | 24 | 130 | 4.8 | 11.3 | 0.00 | 0.00 | 0.00 | 45 | 1012.8 |
| 20260504204004 | 25 | 244 | 3.2 | 14.5 | 0.00 | 0.00 | 0.00 | 47 | 1012.9 |
| 20260504203505 | 24 | 269 | 6.4 | 14.5 | 0.00 | 0.00 | 0.00 | 46 | 1012.9 |
| 20260504203006 | 25 | 215 | 3.2 | 14.5 | 0.00 | 0.00 | 0.00 | 46 | 1012.9 |
| 20260504202505 | 25 | 143 | 3.2 | 14.5 | 0.00 | 0.00 | 0.00 | 47 | 1012.9 |
| 20260504202004 | 24 | 222 | 6.4 | 14.5 | 0.00 | 0.00 | 0.00 | 47 | 1012.9 |
| 20260504201509 | 24 | 181 | 4.8 | 11.3 | 0.00 | 0.00 | 0.00 | 49 | 1013.0 |
| 20260504201003 | 24 | 158 | 3.2 | 9.7 | 0.00 | 0.00 | 0.00 | 47 | 1013.1 |
| 20260504200506 | 24 | 169 | 1.6 | 9.7 | 0.00 | 0.00 | 0.00 | 47 | 1013.1 |
| 20260504200019 | 24 | 248 | 3.2 | 8.0 | 0.00 | 0.00 | 0.00 | 51 | 1013.2 |
| 20260504195506 | 23 | 215 | 3.2 | 12.9 | 0.00 | 0.00 | 0.00 | 52 | 1013.2 |
| 20260504195007 | 23 | 279 | 3.2 | 12.9 | 0.00 | 0.00 | 0.00 | 52 | 1013.3 |
| 20260504194523 | 23 | 225 | 3.2 | 12.9 | 0.00 | 0.00 | 0.00 | 47 | 1013.3 |
| 20260504194009 | 23 | 219 | 3.2 | 12.9 | 0.00 | 0.00 | 0.00 | 51 | 1013.4 |
| 20260504193509 | 23 | 320 | 1.6 | 9.7 | 0.00 | 0.00 | 0.00 | 49 | 1013.4 |
| 20260504193020 | 23 | 20 | 3.2 | 14.5 | 0.00 | 0.00 | 0.00 | 50 | 1013.5 |
| 20260504192508 | 23 | 269 | 3.2 | 14.5 | 0.00 | 0.00 | 0.00 | 51 | 1013.6 |
| 20260504192005 | 23 | 247 | 4.8 | 14.5 | 0.00 | 0.00 | 0.00 | 51 | 1013.7 |
| 20260504191505 | 23 | 238 | 4.8 | 11.3 | 0.00 | 0.00 | 0.00 | 48 | 1013.8 |
| 20260504191005 | 23 | 206 | 4.8 | 11.3 | 0.00 | 0.00 | 0.00 | 50 | 1013.8 |
| 20260504190508 | 23 | 106 | 3.2 | 11.3 | 0.00 | 0.00 | 0.00 | 52 | 1013.9 |
| 20260504190019 | 23 | 269 | 3.2 | 14.5 | 0.00 | 0.00 | 0.00 | 53 | 1014.0 |
| 20260504185506 | 23 | 163 | 4.8 | 14.5 | 0.00 | 0.00 | 0.00 | 51 | 1014.0 |
| 20260504185007 | 23 | 204 | 4.8 | 14.5 | 0.00 | 0.00 | 0.00 | 49 | 1014.1 |
| 20260504184532 | 23 | 235 | 1.6 | 11.3 | 0.00 | 0.00 | 0.00 | 52 | 1014.2 |
| 20260504184013 | 23 | 188 | 1.6 | 14.5 | 0.00 | 0.00 | 0.00 | 53 | 1014.3 |
| 20260504183508 | 23 | 239 | 4.8 | 14.5 | 0.00 | 0.00 | 0.00 | 51 | 1014.5 |
| 20260504183023 | 23 | 223 | 3.2 | 14.5 | 0.00 | 0.00 | 0.00 | 49 | 1014.6 |
| 20260504182512 | 23 | 4 | 3.2 | 12.9 | 0.00 | 0.00 | 0.00 | 50 | 1014.7 |
| 20260504182010 | 23 | 194 | 3.2 | 11.3 | 0.00 | 0.00 | 0.00 | 50 | 1014.7 |
| 20260504181523 | 23 | 181 | 3.2 | 12.9 | 0.00 | 0.00 | 0.00 | 49 | 1014.9 |
| 20260504181010 | 23 | 246 | 1.6 | 14.5 | 0.00 | 0.00 | 0.00 | 54 | 1014.9 |
| 20260504180506 | 23 | 251 | 3.2 | 14.5 | 0.00 | 0.00 | 0.00 | 50 | 1015.0 |
| 20260504180010 | 23 | 183 | 1.6 | 12.9 | 0.00 | 0.00 | 0.00 | 53 | 1015.0 |
| 20260504175504 | 23 | 152 | 3.2 | 12.9 | 0.00 | 0.00 | 0.00 | 55 | 1015.0 |
| 20260504175005 | 22 | 2 | 3.2 | 12.9 | 0.00 | 0.00 | 0.00 | 53 | 1015.1 |
| 20260504174513 | 22 | 287 | 4.8 | 11.3 | 0.00 | 0.00 | 0.00 | 49 | 1015.1 |
| 20260504174010 | 22 | 178 | 3.2 | 14.5 | 0.00 | 0.00 | 0.00 | 47 | 1015.2 |
| 20260504173506 | 22 | 213 | 3.2 | 14.5 | 0.00 | 0.00 | 0.00 | 50 | 1015.2 |
| 20260504173020 | 22 | 104 | 4.8 | 11.3 | 0.00 | 0.00 | 0.00 | 49 | 1015.3 |
| 20260504172507 | 22 | 212 | 3.2 | 12.9 | 0.00 | 0.00 | 0.00 | 51 | 1015.3 |
| 20260504172008 | 22 | 268 | 1.6 | 12.9 | 0.00 | 0.00 | 0.00 | 56 | 1015.3 |
| 20260504171522 | 22 | 277 | 3.2 | 12.9 | 0.00 | 0.00 | 0.00 | 50 | 1015.4 |
| 20260504171011 | 22 | 173 | 3.2 | 12.9 | 0.00 | 0.00 | 0.00 | 51 | 1015.5 |
| 20260504170507 | 22 | 329 | 3.2 | 11.3 | 0.00 | 0.00 | 0.00 | 52 | 1015.5 |
| 20260504151005 | 18 | 163 | 3.2 | 14.5 | 0.00 | 0.00 | 0.00 | 53 | 1017.1 |
| 20260504150511 | 18 | 272 | 4.8 | 14.5 | 0.00 | 0.00 | 0.00 | 56 | 1017.1 |
| 20260504141010 | 16 | 108 | 1.6 | 8.0 | 0.00 | 0.00 | 0.00 | 65 | 1017.9 |
| 20260504140509 | 16 | 298 | 3.2 | 8.0 | 0.00 | 0.00 | 0.00 | 64 | 1017.8 |
| 20260504130507 | 12 | 117 | 1.6 | 6.4 | 0.00 | 0.00 | 0.00 | 82 | 1017.9 |